Skip Page Navigation
NASA JPL Caltech
NASA Logo - Jet Propulsion Laboratory + View the NASA Portal
+ Near-Earth Object (NEO) Program
Search JPL
JPL Home Earth Solar System Stars & Galaxies Technology
JPL Solar System Dynamics
BODIES ORBITS EPHEMERIDES TOOLS PHYSICAL DATA DISCOVERY FAQ SITE MAP
JPL Small-Body Database Browser
Search: [ help ]  
27618 Ceilierin (2001 KL55)
Classification: Main-belt Asteroid          SPK-ID: 2027618
Ephemeris | Orbit Diagram | Orbital Elements | Physical Parameters | Discovery Circumstances | Close-Approach Data ]

[ show orbit diagram ]
Orbital Elements at Epoch 2457000.5 (2014-Dec-09.0) TDB
Reference: JPL 10 (heliocentric ecliptic J2000)
 Element Value Uncertainty (1-sigma)   Units 
e .1539111527502135 6.1142e-08  
a 2.271177330021878 2.1104e-08 AU
q 1.921617809058059 1.4065e-07 AU
i 6.518227159294181 7.7879e-06 deg
node 119.5636711041645 5.884e-05 deg
peri 149.9736916580218 7.2171e-05 deg
M 317.6992103218627 5.0744e-05 deg
tp 2457147.399719971526
(2015-May-04.89971997)
0.00017754 JED
period 1250.187043602207
3.42
1.7425e-05
4.771e-08
d
yr
n .287956911601579 4.0135e-09 deg/d
Q 2.620736850985697 2.4352e-08 AU
  Orbit Determination Parameters
   # obs. used (total)      481  
   data-arc span      8357 days (22.88 yr)  
   first obs. used      1991-07-10  
   last obs. used      2014-05-27  
   planetary ephem.      DE431  
   SB-pert. ephem.      SB431-BIG16  
   condition code      0  
   fit RMS      .57807  
   data source      ORB  
   producer      Otto Matic  
   solution date      2014-Jun-16 14:21:58  

Additional Information
 Earth MOID = .910012 AU 
 T_jup = 3.588 
[ show covariance matrix ]

Ephemeris | Orbit Diagram | Orbital Elements | Physical Parameters | Discovery Circumstances | Close-Approach Data ]

Physical Parameter Table
Parameter Symbol Value Units Sigma Reference Notes
absolute magnitude H 15.6 mag n/a PDS3 (MPO 14715)  

27618 Ceilierin           Discovered 2001 May 22 by the Lincoln Laboratory Near-Earth Asteroid Research Team at Socorro.
Ceili Erin Masterson (b. 1998) is a finalist in the 2012 Broadcom MASTERS, a math and science competition for middle-school students, for her animal and plant sciences project. She attends the Stone Middle School, Melbourne, Florida.
NOTE: some special characters may not display properly (any characters within {} are an attempt to place the proper accent above a character)
Reference: 20121029/MPCPages.arcLast Updated: 2013-03-29

[ show close-approach data ]
Alternate Designations
 2001 KL55 = 1991 NS4 
Ephemeris | Orbit Diagram | Orbital Elements | Physical Parameters | Discovery Circumstances | Close-Approach Data ]
ABOUT SSD CREDITS/AWARDS PRIVACY/COPYRIGHT GLOSSARY LINKS
FirstGov 2014-Nov-24 20:12 UT
(server date/time)  
NASA Home Page
Site Manager:   Donald K. Yeomans
Webmaster  Alan B. Chamberlin